Regional Weather Roundup
Issued by NWS Upton, NY

Current Version | Previous Version | Text Only | Print | Product List | Glossary On
Versions: 1 2 3 4 5 6 7 8 9 10 11 12 13 14 15 16 17 18 19 20 21 22 23 24 25 26 27 28 29 30 31 32 33 34 35 36 37 38 39 40 41 42 43 44 45 46 47 48 49 50
000
ASUS41 KOKX 110208
RWROKX

REGIONAL WEATHER ROUNDUP
NATIONAL WEATHER SERVICE NEW YORK NY
900 PM EST SAT DEC 10 2016

NOTE: "FAIR" INDICATES FEW OR NO CLOUDS BELOW 12,000 FEET WITH NO
SIGNIFICANT WEATHER AND/OR OBSTRUCTIONS TO VISIBILITY.

NYZ071-072-176-178-NJZ106-104-110300-
NEW YORK CITY METRO AREA

CITY           SKY/WX    TMP DP  RH WIND       PRES   REMARKS
Central Park   CLEAR     32  19  58 CALM      30.45S
Wall St Helipt CLEAR     33  19  56 W8        30.45S WCI  26
Bronx Bot Gard NOT AVBL
LaGuardia APRT PTCLDY    34  21  59 NW12      30.44S WCI  25
Kennedy INTL   PTCLDY    32  17  54 NW8       30.45S WCI  25
Breezy Point     N/A    N/A N/A N/A NW10G17     N/A
Newark/Liberty PTCLDY    30  16  56 W8        30.44S WCI  22
Teterboro      CLEAR     30  19  63 NW5       30.43F WCI  25
$$

NYZ177-179-078>081-110300-
LONG ISLAND NEW YORK

CITY           SKY/WX    TMP DP  RH WIND       PRES   REMARKS
Jones Beach      N/A     32 N/A N/A NW13        N/A  WCI  22
Matinecock PT    N/A     34 N/A N/A W20         N/A  WCI  22
Farmingdale    PTCLDY    30  20  66 NW5       30.44R WCI  25
MacArthur/ISP  PTCLDY    27  19  72 W3        30.43R
Shirley        MOCLDY    28  19  69 CALM      30.44R
Westhampton    NOT AVBL
Southampton    NOT AVBL
Bridgehampton  NOT AVBL
East Hampton   CLOUDY    21  14  73 CALM      30.42R
Montauk          N/A     32  14  47 NW9       30.43R WCI  24
$$

NYZ052-065-067-110300-
HUDSON VALLEY

CITY           SKY/WX    TMP DP  RH WIND       PRES   REMARKS
White Plains   CLEAR     27  19  72 W5        30.40S WCI  22
Newburgh       MOCLDY    23  21  93 W8        30.41S WCI  14
Montgomery     MOCLDY    25  21  85 SW3       30.40S
Poughkeepsie   PTCLDY    21  15  78 CALM      30.42R
Albany         PTCLDY    19  12  74 CALM      30.40S
$$

NJZ001-105-106-008-010-013-015-019>022-104-110300-
NEW JERSEY

CITY           SKY/WX    TMP DP  RH WIND       PRES   REMARKS
Newark/Liberty PTCLDY    30  16  56 W8        30.44S WCI  22
Teterboro      CLEAR     30  19  63 NW5       30.43F WCI  25
Caldwell       CLEAR     27  19  72 S3        30.44S
Somerville     CLEAR     26  15  63 VRB3      30.43S
Linden           N/A     30  15  53 W3        30.45S
Sussex         CLEAR     21  18  88 CALM      30.40F
Andover          N/A     20  17  88 CALM      30.41F
Trenton        CLEAR     29  14  53 NW7       30.44F WCI  22
Millville      CLEAR     26  16  65 W5        30.49S WCI  20
Atlantic City  CLEAR     28  14  55 W6        30.48S WCI  22
Wrightstown    CLEAR     29  14  53 W5        30.44S WCI  23
Toms River     CLEAR     23  17  78 CALM      30.48R
Belmar         CLEAR     26  16  65 W6        30.46S WCI  19
$$

PAZ047>061-062-071-110300-
EASTERN PENNSYLVANIA

CITY           SKY/WX    TMP DP  RH WIND       PRES   REMARKS
Philadelphia   CLEAR     31  14  49 W8        30.49S WCI  23
Allentown      CLEAR     25  14  63 W7        30.44S WCI  17
Scranton       CLEAR     24  16  71 SW7       30.38F WCI  16
$$

CTZ002-004>006-009-010-012-RIZ004-006-007-MAZ004-011-015-110300-
SOUTHERN NEW ENGLAND
 IN CT

CITY           SKY/WX    TMP DP  RH WIND       PRES   REMARKS
Bradley INTL   CLEAR     18  10  71 CALM      30.41R
Hartford       CLEAR     25  13  60 W3        30.43R
Danbury        PTCLDY    19  15  84 SW3       30.41S
Wtrbury/Oxford CLEAR     19  10  68 CALM      30.39S
Bridgeport     CLEAR     28  16  60 NW5       30.43R WCI  23
Meriden        CLEAR     20  12  71 CALM      30.43R
New Haven      PTCLDY    21  14  74 CALM      30.43R
Chester          N/A     25  10  54 CALM      30.40R
Groton         CLEAR     28  12  51 NW5       30.42R WCI  23
Wilimantic     CLEAR     19  12  74 CALM      30.42R

 IN RI

CITY           SKY/WX    TMP DP  RH WIND       PRES   REMARKS
Providence     CLEAR     25   7  46 CALM      30.41R
Block Island   CLEAR     31  13  47 NW15G21   30.41R WCI  20
Westerly       CLEAR     25  10  53 W3        30.43R
 IN MA

CITY           SKY/WX    TMP DP  RH WIND       PRES   REMARKS
Boston         PTCLDY    23   5  46 NW7       30.42R WCI  15
Worcester      CLEAR     18   5  57 W6        30.33R WCI  10
Westfield      CLEAR     16  14  92 CALM      30.40R
Provincetown   PTCLDY    27  14  58 NW18      30.39R WCI  14
Nantucket      CLEAR     28  11  48 NW14      30.38R WCI  17
$$

ANZ330-335-338-340-345-350-353-355-110300-
COASTAL MARINE OBSERVATIONS


STATION/POSITION TIME  SKY/WX   TEMP    WIND        PRES    VSBY  WAVE
                                AIR SEA DIR/SP/G                  HT/PER
                 (UTC)          (F)     (DEG/KT/KT) (MB)    (MI)  (FT/S)
NY HARB ENTRANCE 0050            36 51  290/ 19/ 25 1030.3          3/ 4
20 S FIRE ISLAND 0050            36 52  310/ 17/ 21 1029.9          3/ 4
GREAT SOUTH BAY  0115            33 39                N/A
23 SSW MONTAUK P 0050            36 54  280/ 16/ 19 1029.8          3/ 5
15 E BARNEGAT LI 0130               51                N/A           3/ 4
HUDSON CANYON    0050            40 55              1029.6          5/ 5
KINGS POINT      0130            33 44              1030.5
EXECUTION ROCKS  0145            34     290/ 12/ 16   N/A
CENTRAL LI SOUND 0130            34 49  320/ 10/ 16   N/A           2/ 4
EASTERN LI SOUND NOT AVBL
ROBBINS REEF     0130            32     290/ 15/ 17 1030.9
$$


>>>>>>>>>>>>>>>>>>>>>>>>>>>> KEY <<<<<<<<<<<<<<<<<<<<<<<<<<<
>                                                          <
>     SKY/WX - Sky Condition/Present Weather               <
>     TMP    - Temperature in Fahrenheit                   <
>     DP     - Dew Point in Fahrenheit                     <
>     RH     - Relative Humidity in Percent                <
>     WIND   - Direction (from) and Speed in MPH           <
>     PRES   - Mean Sea Level Pressure (inches of Hg)      <
>     WCI    - Wind Chill Index                            <
>     VSB    - VISIBILITY IN MILES                         <
>     HX     - HEAT INDEX                                  <
>     TC     - TEMPERATURE IN CELSIUS                      <
>     VRB    - VARIABLE WIND DIRECTION                     <
>                                                          <
>>>>>>>>>>>>>>>>>>>>>>>>>>>> KEY <<<<<<<<<<<<<<<<<<<<<<<<<<<



USA.gov is the U.S. government's official web portal to all federal, state and local government web resources and services.